Tracking 19634 objects as of 22-May-2019
HD Live streaming from Space Station
objects crossing your sky now

COSMOS 1091

Track COSMOS 1091 now!
10-day predictions
COSMOS 1091 is classified as:


NORAD ID: 11320
Int'l Code: 1979-028A
Perigee: 967.2 km
Apogee: 1,012.9 km
Inclination: 82.9 °
Period: 104.8 minutes
Semi major axis: 7361 km
RCS: 2.1761 m2 (large)
Launch date: April 7, 1979
Source: Commonwealth of Independent States (former USSR) (CIS)
Launch site: PLESETSK MISSILE AND SPACE COMPLEX (PKMTR)
aabbcc
Your satellite tracking list
Your tracking list is empty




NASA's NSSDC Master Catalog

Two Line Element Set (TLE):
1 11320U 79028A   19141.23809182  .00000034  00000-0  19913-4 0  9996
2 11320  82.9244 251.8542 0031059 163.1798 258.1967 13.74661266 12360
Source of the keplerian elements: AFSPC